Regional Weather Roundup
Issued by NWS

Home | Current Version | Previous Version | Graphics & Text | Print | Product List | Glossary On
Versions: 1 2 3 4 5 6 7 8 9 10 11 12 13 14 15 16 17 18 19 20 21 22 23 24 25 26 27 28 29 30 31 32 33 34 35 36 37 38 39 40 41 42 43 44 45 46 47 48 49 50
000
ASUS43 KFSD 022302
RWRSD

WEATHER ROUNDUP FOR SOUTH DAKOTA
NATIONAL WEATHER SERVICE SIOUX FALLS SD
500 PM CST MON MAR 02 2015

NOTE: "FAIR" INDICATES FEW OR NO CLOUDS BELOW 12,000 FEET WITH NO
SIGNIFICANT WEATHER AND/OR OBSTRUCTIONS TO VISIBILITY.


SDZ001>005-009-010-012>017-030000-
NORTHWEST AND NORTH CENTRAL SOUTH DAKOTA

CITY           SKY/WX    TMP DP  RH WIND       PRES   REMARKS
BUFFALO          N/A     45  12  26 W13       29.65F
FAITH            N/A     49  18  29 W5        29.71F
MOBRIDGE       PTSUNNY   45  22  40 S16       29.74F
$$

SDZ012>016-024>037-041>051-057-063-072>074-030000-
SOUTHWEST AND SOUTH CENTRAL SOUTH DAKOTA

CITY           SKY/WX    TMP DP  RH WIND       PRES   REMARKS
RAPID CTY ARPT PTSUNNY   46  28  49 N10       29.69F
PIERRE         MOSUNNY   44  13  28 S20G31    29.80F
CUSTER         PTSUNNY   39  21  48 SW3       29.67F
ELLSWORTH AFB  PTSUNNY   44  27  51 N10       29.69F
PHILIP         PTSUNNY   47  16  29 S15       29.74F
PINE RIDGE     PTSUNNY   42  21  43 S16G25    29.74F
SPEARFISH      FAIR      37  25  60 SE5       29.72F
WINNER         CLOUDY    43  11  27 S23G31    29.86F
$$

SDZ004>011-016>023-039-040-030000-
NORTHEAST SOUTH DAKOTA

CITY           SKY/WX    TMP DP  RH WIND       PRES   REMARKS
ABERDEEN       MOSUNNY   34  20  56 S26G35    29.93F WCI  21
WATERTOWN      CLOUDY    26  17  68 S22G30    30.00F WCI  12
SISSETON         N/A     30  19  63 S23       30.02F WCI  17
$$

SDZ017-020-022-023-036>040-048>070-030000-
SOUTHEAST SOUTH DAKOTA

CITY           SKY/WX    TMP DP  RH WIND       PRES   REMARKS
SIOUX FALLS    CLOUDY    30  18  60 SE16      30.07F WCI  19
HURON          CLOUDY    34  18  52 SE17G25   29.96F WCI  23
MITCHELL       CLOUDY    37  19  48 S18G25    30.00F
YANKTON        CLOUDY    39  19  45 S20       30.05F
$$

ABBREVIATIONS USED IN REMARKS
   TC - TEMPERATURE IN CELSIUS
  WCI - WIND CHILL INDEX
   HX - HEAT INDEX
  VSB - VISIBILITY



USA.gov is the U.S. government's official web portal to all federal, state and local government web resources and services.